Flag for Australia Weather past 2 weeks in Alice Springs, Northern Territory, Australia

Now
66 °F

Sunny.


Feels Like: 66 °F
Forecast: 42 / 67 °F
Wind: 10 mph from Southeast

Location: Alice Springs Aerodrome

Current Time: Apr 28, 2015 at 4:55:02 PM

Latest Report: Apr 28, 2015 at 4:30 PM


Visibility: 10 mi

Pressure: 30.18 "Hg

Humidity: 26%

Dew point: 30 °F

Location of Alice SpringsLocation

Historic Weather in Alice Springs — Graph

°F

Alice Springs temperature yesterday

Maximum temperature yesterday: 68 °F (at 2:30 PM)
Minimum temperature yesterday: 45 °F (at 6:30 AM)
Average temperature yesterday: 57 °F

Past Weeks' High & Low Weather Summary

 TemperatureHumidityPressure
High100 °F (Apr 15, 4:00 PM)100% (Apr 19, 1:30 AM)30.39 "Hg (Apr 19, 1:30 AM)
Low39 °F (Apr 28, 6:30 AM)6% (Apr 15, 2:30 PM)29.89 "Hg (Apr 13, 3:30 PM)
Average65 °F43%30.15 "Hg
* Reported Apr 13 3:30 PM — Apr 28 3:30 PM, Alice Springs, Weather by CustomWeather, © 2015

Note: Actual official high and low records may vary slightly from our data, if they occured in-between our weather recording intervals... More about our weather records

Advertising

Alice Springs weather history for previous 24 hours

 ConditionsComfort  
Time TempWeatherWind HumidityBarometerVisibility
3:30 PM
Tue, Apr 28
66 °FSunny.15 mph26%30.18 "Hg10 mi
3:00 PM66 °FSunny.13 mph26%30.18 "Hg10 mi
2:30 PM66 °FSunny.16 mph28%30.18 "Hg10 mi
2:00 PM66 °FSunny.15 mph28%30.21 "Hg10 mi
1:00 PM64 °FSunny.15 mph30%30.24 "Hg10 mi
12:30 PM66 °FSunny.18 mph30%30.24 "Hg10 mi
12:00 PM63 °FSunny.17 mph34%30.27 "Hg10 mi
11:31 AM63 °FSunny.17 mph34%30.30 "Hg10 mi
11:00 AM63 °FSunny.18 mph37%30.30 "Hg10 mi
10:30 AM63 °FSunny.17 mph37%30.30 "Hg10 mi
10:00 AM61 °FSunny.16 mph39%30.30 "Hg10 mi
9:30 AM59 °FSunny.18 mph42%30.30 "Hg10 mi
9:00 AM57 °FSunny.14 mph44%30.30 "Hg10 mi
8:30 AM54 °FSunny.9 mph51%30.30 "Hg10 mi
8:00 AM48 °FSunny.3 mph62%30.30 "Hg10 mi
7:30 AM43 °FSunny.3 mph71%30.30 "Hg10 mi
6:30 AM39 °FSunny.6 mph81%30.27 "Hg10 mi
6:00 AM41 °FClear.5 mph76%30.27 "Hg10 mi
5:30 AM43 °FClear.5 mph76%30.27 "HgN/A
5:00 AM41 °FClear.5 mph81%30.24 "HgN/A
4:30 AM43 °FClear.3 mph71%30.24 "HgN/A
4:00 AM43 °FClear.6 mph76%30.24 "HgN/A
3:30 AM45 °FClear.No wind71%30.24 "HgN/A
3:00 AM43 °FClear.No wind76%30.24 "HgN/A
2:30 AM43 °FClear.5 mph76%30.24 "HgN/A
2:00 AM46 °FClear.No wind66%30.24 "HgN/A
1:30 AM46 °FClear.5 mph66%30.24 "HgN/A
1:00 AM50 °FClear.5 mph58%30.27 "HgN/A
12:30 AM48 °FClear.7 mph66%30.27 "HgN/A
12:00 AM48 °FClear.8 mph66%30.27 "HgN/A
11:30 PM
Mon, Apr 27
50 °FClear.7 mph62%30.27 "HgN/A
11:00 PM52 °FClear.7 mph54%30.27 "HgN/A
10:30 PM52 °FClear.6 mph54%30.27 "HgN/A
10:00 PM52 °FClear.6 mph54%30.27 "HgN/A
9:30 PM54 °FClear.7 mph54%30.27 "HgN/A
9:00 PM54 °FClear.8 mph51%30.27 "HgN/A
8:30 PM55 °FClear.6 mph51%30.27 "HgN/A
8:00 PM55 °FClear.7 mph51%30.24 "HgN/A
7:30 PM59 °FClear.7 mph42%30.24 "HgN/A
7:00 PM61 °FClear.7 mph39%30.24 "HgN/A
6:30 PM63 °FClear.9 mph37%30.24 "HgN/A
6:00 PM64 °FClear.10 mph32%30.21 "HgN/A
5:30 PM64 °FSunny.12 mph32%30.21 "HgN/A
5:00 PM66 °FSunny.13 mph32%30.21 "Hg10 mi
4:30 PM66 °FSunny.12 mph32%30.18 "Hg10 mi
4:00 PM68 °FSunny.15 mph30%30.18 "Hg10 mi
Weather by CustomWeather, © 2015

See weather overviewHow to use our weather pages